TimeIST,TemperatureF,Dew PointF,Humidity,Sea Level PressureIn,VisibilityMPH,Wind Direction,Wind SpeedMPH,Gust SpeedMPH,PrecipitationIn,Events,Conditions,WindDirDegrees,DateUTC
12:00 AM,51.8,48.2,88,30.15,0.9,Calm,Calm,-,N/A,,Mist,0,2014-01-12 18:30:00
1:00 AM,50.0,48.2,94,30.12,0.9,Calm,Calm,-,N/A,,Mist,0,2014-01-12 19:30:00
2:30 AM,50,47,88,30.19,1,Calm,Calm,,,,Mist,,2014-01-12 21:00:00
5:30 AM,45,43,90,30.15,1,Calm,Calm,,,,Mist,,2014-01-13 00:00:00
6:00 AM,46.4,46.4,100,30.12,0.6,Calm,Calm,-,N/A,,Mist,0,2014-01-13 00:30:00
7:00 AM,46.4,46.4,100,30.15,0.6,Calm,Calm,-,N/A,,Mist,0,2014-01-13 01:30:00
8:30 AM,48,46,89,30.18,1,Calm,Calm,,,Fog,Patches of Fog,,2014-01-13 03:00:00
9:00 AM,55.4,50.0,82,30.18,0.5,East,4.6,-,N/A,Fog,Shallow Fog,100,2014-01-13 03:30:00
10:00 AM,59.0,48.2,67,30.21,0.7,ENE,5.8,-,N/A,Fog,Shallow Fog,70,2014-01-13 04:30:00
11:00 AM,62.6,48.2,59,30.21,1.1,SE,6.9,-,N/A,,Smoke,130,2014-01-13 05:30:00
11:30 AM,64,50,50,30.14,1,SE,4.6,,,,Smoke,140,2014-01-13 06:00:00
12:00 PM,62.6,50.0,63,30.15,1.2,SSE,9.2,-,N/A,,Smoke,160,2014-01-13 06:30:00
1:00 PM,64.4,46.4,52,30.12,1.6,SSE,5.8,-,N/A,,Smoke,160,2014-01-13 07:30:00
2:00 PM,66.2,46.4,49,30.09,1.9,Variable,5.8,-,N/A,,Smoke,0,2014-01-13 08:30:00
2:30 PM,67,45,33,30.08,1,SE,5.8,,,,Smoke,140,2014-01-13 09:00:00
3:00 PM,68.0,66.2,94,30.09,2.5,South,4.6,-,N/A,,Haze,170,2014-01-13 09:30:00
4:00 PM,66.2,44.6,46,30.06,2.5,SSE,4.6,-,N/A,,Haze,160,2014-01-13 10:30:00
5:00 PM,66.2,44.6,46,30.06,2.5,ESE,4.6,-,N/A,,Haze,110,2014-01-13 11:30:00
5:30 PM,64,46,41,30.05,2,ESE,4.6,,,,Haze,110,2014-01-13 12:00:00
7:00 PM,59.0,46.4,63,30.06,1.0,Calm,Calm,-,N/A,,Smoke,0,2014-01-13 13:30:00
8:00 PM,57.2,46.4,67,30.09,0.6,East,4.6,-,N/A,,Smoke,100,2014-01-13 14:30:00
8:30 PM,58,47,57,30.09,1,East,4.6,,,,Smoke,90,2014-01-13 15:00:00
9:00 PM,57.2,46.4,67,30.09,0.7,East,4.6,-,N/A,,Smoke,80,2014-01-13 15:30:00
11:30 PM,54,46,67,30.08,1,ENE,4.6,,,,Mist,70,2014-01-13 18:00:00